Regional Weather Roundup
Issued by NWS

Home | Current Version | Previous Version | Text Only | Print | Product List | Glossary Off
Versions: 1 2 3 4 5 6 7 8 9 10 11 12 13 14 15 16 17 18 19 20 21 22 23 24 25 26 27 28 29 30 31 32 33 34 35 36 37 38 39 40 41 42 43 44 45 46 47 48 49 50

000
ASUS45 KABQ 051201
RWRNM
NEW MEXICO REGIONAL WEATHER ROUNDUP
NATIONAL WEATHER SERVICE ALBUQUERQUE NM
600 AM MDT SUN JUL 05 2015

NOTE: "FAIR" MEANS FEW OR NO CLOUDS BELOW 12,000 FEET AGL WITH NO
       SIGNIFICANT WEATHER OR OBSTRUCTIONS TO VISION.

      THIS PRODUCT IS RELEASED AS TWO VERSIONS.  ONE VERSION NEAR
      THE TOP OF THE HOUR CONTAINING PRELIMINARY DATA FROM ALBUQUERQUE
      AND OTHER STATIONS.  A FINAL VERSION WITH ADDITIONAL DATA IS
      ISSUED ABOUT 10 MINUTES AFTER THE HOUR.

NMZ501-503-504-510>518-051300-
NORTHWEST PLATEAU/NORTHCENTRAL MOUNTAINS

CITY           SKY/WX    TMP DP  RH WIND       PRES   REMARKS
FARMINGTON     CLOUDY    64  60  87 CALM      30.14S
6HR MIN TEMP:  63; 6HR MAX TEMP:  65; 6HR PCP: TRACE;

SANTA FE       PTCLDY    59  52  77 E3        30.18F
6HR MIN TEMP:  58; 6HR MAX TEMP:  68;

TAOS           CLEAR     54  39  58 CALM      30.25F

$$
NMZ402-403-502-505>509-051300-
WESTCENTRAL MOUNTAINS/SOUTHWEST MOUNTAINS

CITY           SKY/WX    TMP DP  RH WIND       PRES   REMARKS
GALLUP         CLOUDY    62  55  77 CALM      30.23R
6HR MIN TEMP:  62; 6HR MAX TEMP:  64;

GRANTS         MOCLDY    58  57  96 CALM      30.24S
SILVER CITY      N/A     64  63  94 NW7       30.17S

$$
NMZ407-409-411-412-051300-
SOUTHERN DESERTS

CITY           SKY/WX    TMP DP  RH WIND       PRES   REMARKS
LORDSBURG      FAIR      70  59  68 S3        30.09R
DEMING         CLOUDY    69  66  90 W6        30.08S
6HR MIN TEMP:  67; 6HR MAX TEMP:  69; 6HR PCP:  0.15;

HOLLOMAN AFB   CLEAR     69  58  68 E5        30.04R
ALAMOGORDO     CLEAR     68  57  68 N5        30.07R
T OR C         MOCLDY    68  63  84 CALM      30.09S
6HR MIN TEMP:  67; 6HR MAX TEMP:  70; 6HR PCP: TRACE;


$$
NMZ519>523-051300-
CENTRAL VALLEYS/CENTRAL HIGHLANDS

CITY           SKY/WX    TMP DP  RH WIND       PRES   REMARKS
ALBUQUERQUE    MOCLDY    66  58  75 S5        30.14S
6HR MIN TEMP:  65; 6HR MAX TEMP:  74;

DOUBLE EAGLE   MOCLDY    59  55  88 VRB7      30.17F
CLINES CORNERS PTCLDY    58  52  80 W8        30.22S
6HR MIN TEMP:  58; 6HR MAX TEMP:  63;

BELEN          FAIR      64  56  75 CALM      30.14R
6HR MIN TEMP:  64; 6HR MAX TEMP:  73;

SOCORRO        NOT AVBL

$$
NMZ524>526-539-540-051300-
SOUTHCENTRAL MOUNTAINS

CITY           SKY/WX    TMP DP  RH WIND       PRES   REMARKS
RUIDOSO        NOT AVBL

$$
NMZ527>531-051300-
NORTHEAST HIGHLANDS/NORTHEAST PLAINS

CITY           SKY/WX    TMP DP  RH WIND       PRES   REMARKS
LAS VEGAS      PTCLDY    56  50  80 CALM      30.19F
6HR MIN TEMP:  54; 6HR MAX TEMP:  62;

RATON          CLEAR     54  52  93 N5        30.14S
6HR MIN TEMP:  53; 6HR MAX TEMP:  61;

CLAYTON        CLEAR     66  56  70 SW12      30.05S
6HR MIN TEMP:  65; 6HR MAX TEMP:  68;


$$
NMZ532>537-051300-
EASTCENTRAL PLAINS

CITY           SKY/WX    TMP DP  RH WIND       PRES   REMARKS
TUCUMCARI      CLEAR     69  60  73 SW7       30.03R
6HR MIN TEMP:  69; 6HR MAX TEMP:  75;

CANNON AFB     CLEAR     64  61  91 S5        30.09R
6HR MIN TEMP:  64; 6HR MAX TEMP:  71;

CLOVIS AIRPORT CLEAR     63  57  82 SW7         N/A

$$
NMZ028-029-538-051300-
SOUTHEAST PLAINS

CITY           SKY/WX    TMP DP  RH WIND       PRES   REMARKS
ROSWELL        PTCLDY    67  59  75 S3        30.03R
6HR MIN TEMP:  66; 6HR MAX TEMP:  74;

ARTESIA        CLEAR     68  63  83 SE8       30.04R
CARLSBAD       CLEAR     70  61  73 SE6       30.01S
6HR MIN TEMP:  70; 6HR MAX TEMP:  76;

HOBBS          CLEAR     64  64 100 CALM      30.07R


$$



USA.gov is the U.S. government's official web portal to all federal, state and local government web resources and services.